Location: Newark
(14.1000°N, 87.2167°W)
Time: 08:27:10
(UTC+00:00)

Hubble Space Telescope - Visible Passes

Search period start: 10 August 2020 00:00
Search period end: 20 August 2020 00:00
Orbit: 536 x 540 km, 28.5° (Epoch: 09 August)

Date Brightness Start Highest point End Pass type
(mag) Time Alt. Az. Time Alt. Az. Time Alt. Az.
10 Aug 3.9 08:59:20 12° NE 08:59:20 12° NE 08:59:44 10° NE visible
10 Aug 3.2 10:35:30 10° NW 10:37:39 14° N 10:39:47 10° NNE visible
11 Aug 3.3 10:25:22 10° NNW 10:27:07 12° N 10:28:51 10° NNE visible
12 Aug 3.4 10:15:15 10° NNW 10:16:36 11° N 10:17:56 10° NNE visible
13 Aug 3.5 10:05:06 10° NNW 10:06:05 11° N 10:07:04 10° N visible
14 Aug 3.5 09:54:49 10° NNW 09:55:35 10° N 09:56:21 10° N visible
15 Aug 3.5 09:44:15 10° N 09:45:04 10° N 09:45:55 10° NNE visible
16 Aug 3.6 09:34:07 11° N 09:34:35 11° N 09:35:42 10° NNE visible
17 Aug 3.6 09:24:14 12° N 09:24:14 12° N 09:25:34 10° NNE visible
17 Aug 2.8 11:02:30 10° NW 11:05:55 25° NNE 11:09:21 10° ENE visible
18 Aug 3.7 09:14:27 12° NNE 09:14:27 12° NNE 09:15:27 10° NE visible
18 Aug 2.4 10:51:38 10° NW 10:55:18 31° NNE 10:58:59 10° E visible
19 Aug 3.9 09:04:48 12° NE 09:04:48 12° NE 09:05:18 10° NE visible
19 Aug 2.0 10:40:47 10° NW 10:44:39 39° NNE 10:48:32 10° E visible
